Time,TemperatureF,DewpointF,PressureIn,WindDirection,WindDirectionDegrees,WindSpeedMPH,WindSpeedGustMPH,Humidity,HourlyPrecipIn,Conditions,Clouds,dailyrainin,SoftwareType,DateUTC
2013-02-15 00:02:00,27.0,27.0,-100.00,West,270,9.0,11.0,99,0.00,,,-99.99,,2013-02-15 06:02:00,
2013-02-15 00:11:00,27.0,27.0,-100.00,West,280,8.0,12.0,99,0.00,,,-99.99,,2013-02-15 06:11:00,
2013-02-15 00:21:00,27.0,27.0,-100.00,West,280,9.0,11.0,99,0.00,,,-99.99,,2013-02-15 06:21:00,
2013-02-15 00:31:00,27.0,27.0,-100.00,WNW,290,11.0,14.0,99,0.00,,,-99.99,,2013-02-15 06:31:00,
2013-02-15 00:42:00,27.0,27.0,-100.00,WNW,290,11.0,14.0,99,0.00,,,-99.99,,2013-02-15 06:42:00,
2013-02-15 00:51:00,27.0,27.0,-100.00,WNW,295,11.0,16.0,99,0.00,,,-99.99,,2013-02-15 06:51:00,
2013-02-15 01:01:00,27.0,26.0,-100.00,WNW,290,11.0,16.0,97,0.00,,,-99.99,,2013-02-15 07:01:00,
2013-02-15 01:11:00,26.0,25.0,-100.00,WNW,295,10.0,14.0,96,0.00,,,-99.99,,2013-02-15 07:11:00,
2013-02-15 01:21:00,26.0,24.0,-100.00,NW,325,11.0,13.0,93,0.00,,,-99.99,,2013-02-15 07:21:00,
2013-02-15 01:31:00,25.0,22.0,-100.00,NW,325,9.0,17.0,89,0.00,,,-99.99,,2013-02-15 07:31:00,
2013-02-15 01:42:00,25.0,22.0,-100.00,NNW,330,9.0,16.0,88,0.00,,,-99.99,,2013-02-15 07:42:00,
2013-02-15 01:52:00,24.0,21.0,-100.00,NW,315,9.0,12.0,87,0.00,,,-99.99,,2013-02-15 07:52:00,
2013-02-15 02:01:00,24.0,21.0,-100.00,WNW,295,9.0,14.0,87,0.00,,,-99.99,,2013-02-15 08:01:00,
2013-02-15 02:11:00,24.0,20.0,-100.00,NW,315,9.0,14.0,87,0.00,,,-99.99,,2013-02-15 08:11:00,
2013-02-15 02:21:00,23.0,19.0,-100.00,WNW,295,7.0,12.0,85,0.00,,,-99.99,,2013-02-15 08:21:00,
2013-02-15 02:31:00,22.0,18.0,-100.00,NW,315,8.0,13.0,84,0.00,,,-99.99,,2013-02-15 08:31:00,
2013-02-15 02:42:00,22.0,18.0,-100.00,NW,315,7.0,13.0,84,0.00,,,-99.99,,2013-02-15 08:42:00,
2013-02-15 02:52:00,22.0,18.0,-100.00,NW,305,7.0,12.0,83,0.00,,,-99.99,,2013-02-15 08:52:00,
2013-02-15 03:01:00,22.0,18.0,-100.00,NW,305,7.0,12.0,83,0.00,,,-99.99,,2013-02-15 09:01:00,
2013-02-15 03:12:00,22.0,17.0,-100.00,NW,310,6.0,12.0,82,0.00,,,-99.99,,2013-02-15 09:12:00,
2013-02-15 03:21:00,22.0,17.0,-100.00,NW,320,9.0,13.0,83,0.00,,,-99.99,,2013-02-15 09:21:00,
2013-02-15 03:32:00,21.0,17.0,-100.00,NNW,330,7.0,15.0,83,0.00,,,-99.99,,2013-02-15 09:32:00,
2013-02-15 03:41:00,21.0,17.0,-100.00,NNW,330,6.0,15.0,83,0.00,,,-99.99,,2013-02-15 09:41:00,
2013-02-15 03:51:00,21.0,17.0,-100.00,NNW,330,9.0,14.0,82,0.00,,,-99.99,,2013-02-15 09:51:00,
2013-02-15 04:01:00,21.0,17.0,-100.00,NW,325,9.0,14.0,82,0.00,,,-99.99,,2013-02-15 10:01:00,
2013-02-15 04:11:00,21.0,16.0,-100.00,NNW,340,11.0,16.0,80,0.00,,,-99.99,,2013-02-15 10:11:00,
2013-02-15 04:21:00,21.0,15.0,-100.00,NNW,335,11.0,17.0,78,0.00,,,-99.99,,2013-02-15 10:21:00,
2013-02-15 04:31:00,21.0,15.0,-100.00,NNW,340,14.0,18.0,76,0.00,,,-99.99,,2013-02-15 10:31:00,
2013-02-15 04:41:00,20.0,14.0,-100.00,NNW,330,11.0,17.0,76,0.00,,,-99.99,,2013-02-15 10:41:00,
2013-02-15 04:51:00,20.0,14.0,-100.00,North,350,11.0,19.0,75,0.00,,,-99.99,,2013-02-15 10:51:00,
2013-02-15 05:01:00,20.0,14.0,-100.00,NNW,335,10.0,16.0,75,0.00,,,-99.99,,2013-02-15 11:01:00,
2013-02-15 05:11:00,20.0,14.0,-100.00,NNW,335,10.0,16.0,75,0.00,,,-99.99,,2013-02-15 11:11:00,
2013-02-15 05:22:00,20.0,13.0,-100.00,NNW,330,11.0,17.0,74,0.00,,,-99.99,,2013-02-15 11:22:00,
2013-02-15 05:32:00,20.0,13.0,-100.00,NNW,335,8.0,16.0,74,0.00,,,-99.99,,2013-02-15 11:32:00,
2013-02-15 05:42:00,20.0,13.0,-100.00,NNW,330,8.0,16.0,74,0.00,,,-99.99,,2013-02-15 11:42:00,
2013-02-15 05:52:00,19.0,13.0,-100.00,NNW,330,8.0,12.0,75,0.00,,,-99.99,,2013-02-15 11:52:00,
2013-02-15 06:02:00,19.0,13.0,-100.00,NNW,335,8.0,12.0,75,0.00,,,-99.99,,2013-02-15 12:02:00,
2013-02-15 06:11:00,19.0,13.0,-100.00,NNW,340,7.0,13.0,75,0.00,,,-99.99,,2013-02-15 12:11:00,
2013-02-15 06:21:00,19.0,12.0,-100.00,NNW,335,7.0,10.0,75,0.00,,,-99.99,,2013-02-15 12:21:00,
2013-02-15 06:32:00,18.0,12.0,-100.00,NNW,335,6.0,10.0,76,0.00,,,-99.99,,2013-02-15 12:32:00,
2013-02-15 06:42:00,18.0,12.0,-100.00,NNW,335,6.0,10.0,76,0.00,,,-99.99,,2013-02-15 12:42:00,
2013-02-15 06:52:00,18.0,12.0,-100.00,NW,310,5.0,9.0,77,0.00,,,-99.99,,2013-02-15 12:52:00,
2013-02-15 07:02:00,18.0,13.0,-100.00,NW,320,6.0,11.0,79,0.00,,,-99.99,,2013-02-15 13:02:00,
2013-02-15 07:11:00,18.0,13.0,-100.00,WNW,300,5.0,7.0,80,0.00,,,-99.99,,2013-02-15 13:11:00,
2013-02-15 07:22:00,18.0,13.0,-100.00,NW,305,7.0,11.0,80,0.00,,,-99.99,,2013-02-15 13:22:00,
2013-02-15 07:32:00,18.0,13.0,-100.00,NW,305,6.0,10.0,81,0.00,,,-99.99,,2013-02-15 13:32:00,
2013-02-15 07:42:00,18.0,13.0,-100.00,WNW,285,6.0,9.0,82,0.00,,,-99.99,,2013-02-15 13:42:00,
2013-02-15 07:52:00,19.0,14.0,-100.00,WNW,290,7.0,10.0,82,0.00,,,-99.99,,2013-02-15 13:52:00,
2013-02-15 08:01:00,19.0,14.0,-100.00,WNW,290,7.0,10.0,82,0.00,,,-99.99,,2013-02-15 14:01:00,
2013-02-15 08:11:00,19.0,14.0,-100.00,WNW,295,9.0,12.0,80,0.00,,,-99.99,,2013-02-15 14:11:00,
2013-02-15 08:21:00,20.0,14.0,-100.00,WNW,295,9.0,13.0,78,0.00,,,-99.99,,2013-02-15 14:21:00,
2013-02-15 08:32:00,20.0,14.0,-100.00,WNW,300,8.0,13.0,78,0.00,,,-99.99,,2013-02-15 14:32:00,
2013-02-15 08:41:00,20.0,14.0,-100.00,WNW,295,10.0,13.0,76,0.00,,,-99.99,,2013-02-15 14:41:00,
2013-02-15 08:52:00,20.0,13.0,-100.00,WNW,295,9.0,13.0,73,0.00,,,-99.99,,2013-02-15 14:52:00,
2013-02-15 09:01:00,21.0,13.0,-100.00,West,280,10.0,12.0,72,0.00,,,-99.99,,2013-02-15 15:01:00,
2013-02-15 09:11:00,21.0,13.0,-100.00,WNW,290,9.0,14.0,71,0.00,,,-99.99,,2013-02-15 15:11:00,
2013-02-15 09:21:00,22.0,14.0,-100.00,NW,305,6.0,12.0,70,0.00,,,-99.99,,2013-02-15 15:21:00,
2013-02-15 09:32:00,22.0,13.0,-100.00,NW,305,9.0,12.0,68,0.00,,,-99.99,,2013-02-15 15:32:00,
2013-02-15 09:42:00,22.0,13.0,-100.00,NW,310,8.0,13.0,68,0.00,,,-99.99,,2013-02-15 15:42:00,
2013-02-15 09:51:00,22.0,13.0,-100.00,WNW,290,9.0,14.0,68,0.00,,,-99.99,,2013-02-15 15:51:00,
2013-02-15 10:01:00,22.0,13.0,-100.00,WNW,285,10.0,13.0,68,0.00,,,-99.99,,2013-02-15 16:01:00,
2013-02-15 10:11:00,23.0,14.0,-100.00,WNW,285,8.0,12.0,67,0.00,,,-99.99,,2013-02-15 16:11:00,
2013-02-15 10:22:00,23.0,15.0,-100.00,WNW,290,9.0,13.0,68,0.00,,,-99.99,,2013-02-15 16:22:00,
2013-02-15 10:32:00,23.0,14.0,-100.00,West,275,9.0,13.0,68,0.00,,,-99.99,,2013-02-15 16:32:00,
2013-02-15 10:42:00,24.0,15.0,-100.00,WNW,285,10.0,14.0,67,0.00,,,-99.99,,2013-02-15 16:42:00,
2013-02-15 10:51:00,25.0,16.0,-100.00,WNW,295,10.0,15.0,67,0.00,,,-99.99,,2013-02-15 16:51:00,
2013-02-15 11:01:00,25.0,16.0,-100.00,WNW,295,10.0,15.0,67,0.00,,,-99.99,,2013-02-15 17:01:00,
2013-02-15 11:11:00,25.0,16.0,-100.00,WNW,290,11.0,17.0,66,0.00,,,-99.99,,2013-02-15 17:11:00,
2013-02-15 11:21:00,26.0,16.0,-100.00,WNW,290,11.0,18.0,65,0.00,,,-99.99,,2013-02-15 17:21:00,
2013-02-15 11:32:00,26.0,15.0,-100.00,NW,310,13.0,16.0,63,0.00,,,-99.99,,2013-02-15 17:32:00,
2013-02-15 11:41:00,26.0,15.0,-100.00,NW,310,13.0,16.0,63,0.00,,,-99.99,,2013-02-15 17:41:00,
2013-02-15 11:52:00,26.0,15.0,-100.00,NW,305,10.0,17.0,63,0.00,,,-99.99,,2013-02-15 17:52:00,
2013-02-15 12:01:00,26.0,16.0,-100.00,WNW,300,9.0,17.0,63,0.00,,,-99.99,,2013-02-15 18:01:00,
2013-02-15 12:11:00,26.0,15.0,-100.00,West,280,12.0,17.0,63,0.00,,,-99.99,,2013-02-15 18:11:00,
2013-02-15 12:21:00,27.0,16.0,-100.00,NW,310,9.0,17.0,63,0.00,,,-99.99,,2013-02-15 18:21:00,
2013-02-15 12:32:00,27.0,16.0,-100.00,WNW,285,13.0,18.0,62,0.00,,,-99.99,,2013-02-15 18:32:00,
2013-02-15 12:42:00,27.0,16.0,-100.00,WNW,285,13.0,18.0,62,0.00,,,-99.99,,2013-02-15 18:42:00,
2013-02-15 12:52:00,28.0,15.0,-100.00,WNW,285,13.0,19.0,59,0.00,,,-99.99,,2013-02-15 18:52:00,
2013-02-15 13:01:00,27.0,12.0,-100.00,WNW,285,17.0,23.0,53,0.00,,,-99.99,,2013-02-15 19:01:00,
2013-02-15 13:11:00,28.0,11.0,-100.00,WNW,295,16.0,21.0,49,0.00,,,-99.99,,2013-02-15 19:11:00,
2013-02-15 13:22:00,27.0,10.0,-100.00,West,280,18.0,22.0,48,0.00,,,-99.99,,2013-02-15 19:22:00,
2013-02-15 13:32:00,27.0,11.0,-100.00,West,260,15.0,22.0,48,0.00,,,-99.99,,2013-02-15 19:32:00,
2013-02-15 13:51:00,29.0,13.0,-100.00,WNW,285,12.0,19.0,51,0.00,,,-99.99,,2013-02-15 19:51:00,
2013-02-15 14:01:00,28.0,13.0,-100.00,WNW,290,11.0,21.0,52,0.00,,,-99.99,,2013-02-15 20:01:00,
2013-02-15 14:11:00,28.0,14.0,-100.00,WNW,290,12.0,21.0,54,0.00,,,-99.99,,2013-02-15 20:11:00,
2013-02-15 14:21:00,27.0,13.0,-100.00,WNW,295,12.0,21.0,53,0.00,,,-99.99,,2013-02-15 20:21:00,
2013-02-15 14:32:00,27.0,13.0,-100.00,WNW,295,12.0,17.0,53,0.00,,,-99.99,,2013-02-15 20:32:00,
2013-02-15 14:42:00,27.0,13.0,-100.00,WNW,300,13.0,20.0,54,0.00,,,-99.99,,2013-02-15 20:42:00,
2013-02-15 14:52:00,27.0,14.0,-100.00,NW,320,12.0,21.0,56,0.00,,,-99.99,,2013-02-15 20:52:00,
2013-02-15 15:01:00,27.0,14.0,-100.00,NW,320,12.0,21.0,56,0.00,,,-99.99,,2013-02-15 21:01:00,
2013-02-15 15:11:00,26.0,14.0,-100.00,NW,305,16.0,21.0,60,0.00,,,-99.99,,2013-02-15 21:11:00,
2013-02-15 15:21:00,25.0,14.0,-100.00,WNW,300,12.0,23.0,63,0.00,,,-99.99,,2013-02-15 21:21:00,
2013-02-15 15:31:00,25.0,15.0,-100.00,WNW,300,15.0,22.0,67,0.00,,,-99.99,,2013-02-15 21:31:00,
2013-02-15 15:42:00,26.0,16.0,-100.00,WNW,300,16.0,25.0,66,0.00,,,-99.99,,2013-02-15 21:42:00,
2013-02-15 15:51:00,26.0,15.0,-100.00,WNW,300,14.0,22.0,65,0.00,,,-99.99,,2013-02-15 21:51:00,
2013-02-15 16:02:00,26.0,16.0,-100.00,WNW,300,15.0,21.0,65,0.00,,,-99.99,,2013-02-15 22:02:00,
2013-02-15 16:11:00,26.0,16.0,-100.00,NW,310,14.0,23.0,65,0.00,,,-99.99,,2013-02-15 22:11:00,
2013-02-15 16:21:00,25.0,15.0,-100.00,WNW,290,15.0,22.0,67,0.00,,,-99.99,,2013-02-15 22:21:00,
2013-02-15 16:31:00,24.0,15.0,-100.00,WNW,290,17.0,24.0,68,0.00,,,-99.99,,2013-02-15 22:31:00,
2013-02-15 16:41:00,24.0,15.0,-100.00,WNW,290,17.0,24.0,68,0.00,,,-99.99,,2013-02-15 22:41:00,
2013-02-15 16:51:00,25.0,15.0,-100.00,WNW,290,13.0,22.0,66,0.00,,,-99.99,,2013-02-15 22:51:00,
2013-02-15 17:02:00,24.0,15.0,-100.00,WNW,295,15.0,21.0,66,0.00,,,-99.99,,2013-02-15 23:02:00,
2013-02-15 17:11:00,24.0,14.0,-100.00,WNW,300,13.0,21.0,64,0.00,,,-99.99,,2013-02-15 23:11:00,
2013-02-15 17:21:00,24.0,14.0,-100.00,WNW,285,14.0,21.0,65,0.00,,,-99.99,,2013-02-15 23:21:00,
2013-02-15 17:31:00,24.0,14.0,-100.00,WNW,295,14.0,21.0,65,0.00,,,-99.99,,2013-02-15 23:31:00,
2013-02-15 17:42:00,24.0,14.0,-100.00,WNW,290,16.0,21.0,66,0.00,,,-99.99,,2013-02-15 23:42:00,
2013-02-15 17:52:00,24.0,14.0,-100.00,WNW,290,16.0,24.0,66,0.00,,,-99.99,,2013-02-15 23:52:00,
2013-02-15 18:02:00,23.0,14.0,-100.00,WNW,300,14.0,21.0,66,0.00,,,-99.99,,2013-02-16 00:02:00,
2013-02-15 18:11:00,23.0,14.0,-100.00,WNW,285,17.0,21.0,66,0.00,,,-99.99,,2013-02-16 00:11:00,
2013-02-15 18:21:00,23.0,14.0,-100.00,WNW,295,16.0,22.0,67,0.00,,,-99.99,,2013-02-16 00:21:00,
2013-02-15 18:32:00,23.0,14.0,-100.00,WNW,295,16.0,21.0,67,0.00,,,-99.99,,2013-02-16 00:32:00,
2013-02-15 18:41:00,23.0,14.0,-100.00,WNW,295,16.0,21.0,67,0.00,,,-99.99,,2013-02-16 00:41:00,
2013-02-15 18:51:00,22.0,13.0,-100.00,WNW,295,13.0,20.0,68,0.00,,,-99.99,,2013-02-16 00:51:00,
2013-02-15 19:02:00,22.0,13.0,-100.00,WNW,295,13.0,20.0,68,0.00,,,-99.99,,2013-02-16 01:02:00,
2013-02-15 19:11:00,22.0,14.0,-100.00,WNW,290,11.0,19.0,69,0.00,,,-99.99,,2013-02-16 01:11:00,
2013-02-15 19:21:00,22.0,13.0,-100.00,WNW,290,12.0,18.0,69,0.00,,,-99.99,,2013-02-16 01:21:00,
2013-02-15 19:32:00,22.0,13.0,-100.00,WNW,300,11.0,17.0,69,0.00,,,-99.99,,2013-02-16 01:32:00,
2013-02-15 19:41:00,22.0,13.0,-100.00,WNW,300,11.0,17.0,69,0.00,,,-99.99,,2013-02-16 01:41:00,
2013-02-15 19:51:00,21.0,13.0,-100.00,NW,305,11.0,16.0,69,0.00,,,-99.99,,2013-02-16 01:51:00,
2013-02-15 20:01:00,21.0,13.0,-100.00,WNW,295,9.0,16.0,69,0.00,,,-99.99,,2013-02-16 02:01:00,
2013-02-15 20:11:00,21.0,13.0,-100.00,WNW,295,7.0,14.0,71,0.00,,,-99.99,,2013-02-16 02:11:00,
2013-02-15 20:21:00,21.0,14.0,-100.00,WNW,300,9.0,13.0,74,0.00,,,-99.99,,2013-02-16 02:21:00,
2013-02-15 20:31:00,21.0,13.0,-100.00,NW,320,8.0,17.0,72,0.00,,,-99.99,,2013-02-16 02:31:00,
2013-02-15 20:42:00,21.0,13.0,-100.00,NW,320,8.0,17.0,72,0.00,,,-99.99,,2013-02-16 02:42:00,
2013-02-15 20:52:00,20.0,13.0,-100.00,NW,325,9.0,15.0,72,0.00,,,-99.99,,2013-02-16 02:52:00,
2013-02-15 21:01:00,20.0,13.0,-100.00,NW,320,9.0,16.0,72,0.00,,,-99.99,,2013-02-16 03:01:00,
2013-02-15 21:11:00,20.0,13.0,-100.00,NW,315,9.0,17.0,72,0.00,,,-99.99,,2013-02-16 03:11:00,
2013-02-15 21:21:00,20.0,13.0,-100.00,NNW,345,10.0,19.0,72,0.00,,,-99.99,,2013-02-16 03:21:00,
2013-02-15 21:32:00,19.0,12.0,-100.00,WNW,300,9.0,18.0,72,0.00,,,-99.99,,2013-02-16 03:32:00,
2013-02-15 21:41:00,19.0,12.0,-100.00,NW,315,7.0,16.0,72,0.00,,,-99.99,,2013-02-16 03:41:00,
2013-02-15 21:52:00,19.0,12.0,-100.00,WNW,300,7.0,14.0,74,0.00,,,-99.99,,2013-02-16 03:52:00,
2013-02-15 22:01:00,19.0,12.0,-100.00,NW,325,7.0,12.0,74,0.00,,,-99.99,,2013-02-16 04:01:00,
2013-02-15 22:11:00,19.0,12.0,-100.00,NW,315,12.0,19.0,74,0.00,,,-99.99,,2013-02-16 04:11:00,
2013-02-15 22:21:00,18.0,12.0,-100.00,NNW,345,9.0,17.0,74,0.00,,,-99.99,,2013-02-16 04:21:00,
2013-02-15 22:32:00,18.0,11.0,-100.00,NW,315,6.0,16.0,74,0.00,,,-99.99,,2013-02-16 04:32:00,
2013-02-15 22:41:00,18.0,11.0,-100.00,NW,315,6.0,16.0,74,0.00,,,-99.99,,2013-02-16 04:41:00,
2013-02-15 22:51:00,18.0,11.0,-100.00,NNW,330,9.0,12.0,76,0.00,,,-99.99,,2013-02-16 04:51:00,
2013-02-15 23:01:00,18.0,11.0,-100.00,NW,325,11.0,19.0,74,0.00,,,-99.99,,2013-02-16 05:01:00,
2013-02-15 23:12:00,17.0,11.0,-100.00,NNW,340,10.0,17.0,75,0.00,,,-99.99,,2013-02-16 05:12:00,
2013-02-15 23:21:00,17.0,10.0,-100.00,NNW,335,9.0,15.0,75,0.00,,,-99.99,,2013-02-16 05:21:00,
2013-02-15 23:32:00,17.0,10.0,-100.00,NNW,330,13.0,18.0,75,0.00,,,-99.99,,2013-02-16 05:32:00,
2013-02-15 23:42:00,16.0,9.0,-100.00,NW,325,13.0,23.0,74,0.00,,,-99.99,,2013-02-16 05:42:00,
2013-02-15 23:52:00,16.0,9.0,-100.00,NNW,345,11.0,16.0,74,0.00,,,-99.99,,2013-02-16 05:52:00,